Flag for U.S.A. Weather past 2 weeks in Eau Claire, Wisconsin, U.S.A.

Now
18 °F

Overcast.


Feels Like: 13 °F
Forecast: 15 / 25 °F
Wind: 3 mph from West

Location: Eau Claire County Airport

Current Time: Dec 17, 2014 at 10:05:32 PM

Latest Report: Dec 17, 2014 at 8:56 PM


Visibility: 10 mi

Pressure: 30.34 "Hg

Humidity: 74%

Dew point: 11 °F

Location of Eau ClaireLocation

Historic Weather in Eau Claire — Graph

°F

Eau Claire temperature yesterday

Maximum temperature yesterday: 38 °F (at 12:56 AM)
Minimum temperature yesterday: 21 °F (at 11:56 PM)
Average temperature yesterday: 27 °F

Past Weeks' High & Low Weather Summary

 TemperatureHumidityPressure
High47 °F (Dec 14, 10:56 PM)100% (Dec 13, 3:56 AM)30.70 "Hg (Dec 13, 3:56 AM)
Low4 °F (Dec 4, 12:56 AM)44% (Dec 4, 1:56 PM)29.70 "Hg (Dec 15, 3:56 PM)
Average28 °F82%30.21 "Hg
* Reported Dec 2 8:56 PM — Dec 17 8:56 PM, Eau Claire, Weather by CustomWeather, © 2014

Note: Actual official high and low records may vary slightly from our data, if they occured in-between our weather recording intervals... More about our weather records

Advertising

Eau Claire weather history for previous 24 hours

 ConditionsComfort  
Time TempWeatherWind HumidityBarometerVisibility
8:56 PM
Dec 17
18 °FOvercast.3 mph74%30.34 "Hg10 mi
7:56 PM16 °FOvercast.3 mph77%30.34 "Hg10 mi
6:56 PM15 °FPassing clouds.No wind74%30.34 "Hg10 mi
5:56 PM16 °FClear.3 mph71%30.34 "Hg10 mi
4:56 PM16 °FClear.3 mph74%30.34 "Hg10 mi
3:56 PM18 °FPartly sunny.7 mph68%30.33 "Hg10 mi
2:56 PM19 °FOvercast.7 mph68%30.32 "Hg10 mi
1:56 PM19 °FOvercast.6 mph68%30.31 "Hg10 mi
12:56 PM19 °FOvercast.9 mph71%30.31 "Hg10 mi
11:56 AM18 °FOvercast.10 mph71%30.31 "Hg10 mi
10:56 AM19 °FOvercast.7 mph71%30.31 "Hg10 mi
9:56 AM18 °FOvercast.8 mph77%30.32 "Hg10 mi
8:56 AM17 °FOvercast.8 mph80%30.30 "Hg10 mi
7:56 AM17 °FOvercast.9 mph76%30.29 "Hg10 mi
6:56 AM18 °FOvercast.8 mph77%30.29 "Hg10 mi
5:56 AM18 °FLight snow. Overcast.9 mph77%30.28 "Hg8 mi
4:56 AM19 °FOvercast.8 mph74%30.26 "Hg10 mi
3:56 AM19 °FOvercast.12 mph71%30.25 "Hg10 mi
2:56 AM20 °FOvercast.9 mph74%30.26 "Hg10 mi
1:56 AM20 °FOvercast.9 mph74%30.25 "Hg10 mi
12:56 AM21 °FOvercast.10 mph74%30.24 "Hg10 mi
11:56 PM
Dec 16
21 °FOvercast.12 mph74%30.24 "Hg10 mi
10:56 PM22 °FOvercast.9 mph72%30.23 "Hg10 mi
Weather by CustomWeather, © 2014

See weather overviewHow to use our weather pages